STARLINK-1717 (46673 NORAD) Tracking and Keplerian Element Data

This shows tracking and keplerian element data for the satellite.

Feedback or suggestion? Click here.




ElementValue
Catalog46673
NameSTARLINK-1717
Epoch Orbit1458
Epoch Day18.25002315
Epoch Year2021
RAAN40.285
Inclination53.0561
Eccentricity0.0001453
Argument of Perigee65.8982
Mean Anonmoly2.2905
Mean Motion15.06404903
Decay Rate-0.00033391
L11 46673U 20073D 21018.25002315 -.00033391 00000-0 -22330-2 0 9991
L22 46673 53.0561 40.2850 0001453 65.8982 2.2905 15.06404903 14586

Live tracking and technical data element details for STARLINK-1717 (NORAD 46673). STARLINK-1717 can be tracked NOW for your location showing map with azimuth and elevation plus other details from your city location.

Track the satellite on the map from your city or location and see movement details for azimuth, elevation, latitude, longitude, range, height, and movement on the map or in text.







IsCatalogInMostPopularTable: catalog: 46673, numindb: 29
Update: records affected: 1



GetName: 46673 STARLINK-1717

Hit Count: updated at: Tue, 19 Jan 2021 01:48:01 GMT